[[{"header":{"parameterUnit":"m.s-1","parameterCategory":1,"la1":30.2991,"la2":30.254,"lo1":-89.0895,"lo2":-89.0444,"dy":0.0017,"dx":0.0017,"nx":28,"ny":28,"refTime":"2024-03-27T09:00:00:Z","depth":0,"parameterNumber":2,"parameterNumberName":"U-component_of_WINDS"},"data":[0,0,0,0,0,0,0,0,0,0,0,0,0,0,0,0,0,0,0,0,0,0,0,0,0,0,0,0,0,0,0,0,0,0,0,0,0,0,0,0,0,0,0,0,0,0,0,0,0,0,0,0,0,0,0,0,0,0,1.25,1.25,0,1.2444,1.2444,1.2443,1.2395,1.2394,1.2394,1.2393,1.2333,1.2332,1.2331,0,0,0,0,0,0,0,0,0,0,0,0,0,1.2565,1.2564,1.2501,1.25,1.2499,1.2444,1.2444,1.2443,1.2395,1.2394,1.2394,1.2393,1.2334,1.2333,1.2331,0,0,0,0,0,0,0,0,0,0,0,0,0,1.2526,1.2564,1.2501,1.2469,1.2465,1.2444,1.2444,1.2443,1.2395,1.2394,1.2394,1.2393,1.2334,1.2333,1.2331,1.2336,0,0,1.2326,1.2325,0,0,0,0,0,0,0,0,1.2528,1.2524,1.2474,1.2471,1.2467,1.2426,1.2444,1.2407,1.2395,1.2422,1.2393,1.2392,1.2365,1.236,1.2352,1.2334,1.2331,1.2326,1.2325,1.2324,1.2324,0,0,0,0,0,0,0,1.2531,1.2526,1.2478,1.2473,1.2469,1.2457,1.245,1.2437,1.2398,1.2419,1.2416,1.241,1.2363,1.2353,1.235,1.233,1.2326,1.2324,1.2323,1.2323,1.2315,1.2315,0,0,0,0,0,0,1.2539,1.2528,1.248,1.2476,1.2496,1.2456,1.2449,1.244,1.2398,1.2391,1.2411,1.2408,1.2356,1.2352,1.2347,1.2351,1.2324,1.2323,1.2322,1.2314,1.2315,1.2316,0,0,0,0,0,0,1.254,1.2535,1.2482,1.2501,1.2494,1.2456,1.2446,1.2439,1.243,1.2392,1.2384,1.2408,1.2356,1.235,1.234,1.2349,1.2322,1.232,1.2313,1.2314,1.2315,1.2359,0,0,0,0,0,0,1.2542,1.2536,1.2538,1.2502,1.2493,1.2476,1.2447,1.2439,1.2427,1.2423,1.2388,1.2381,1.2355,1.2343,1.2338,1.2346,1.2319,1.2312,1.2314,1.2315,1.2357,1.2362,1.2366,0,0,0,0,0,1.2545,1.2552,1.2538,1.2533,1.2495,1.2477,1.2471,1.2442,1.2428,1.243,1.2405,1.2382,1.2349,1.2342,1.2337,1.2344,1.2311,1.2313,1.2315,1.2355,1.2361,1.2366,0,0,0,0,0,0,1.2589,1.2546,1.2531,1.2526,1.2506,1.2469,1.2469,1.2449,1.2431,1.2428,1.2391,1.2383,1.2378,1.236,1.2353,1.2347,1.2327,1.2328,1.2359,1.2365,1.2369,1.2373,1.2318,0,0,0,0,0,1.2598,1.2588,1.2551,1.2551,1.2541,1.2507,1.2498,1.2478,1.2454,1.2445,1.242,1.2397,1.2382,1.2372,1.2356,1.2355,1.2346,1.2357,1.2362,1.2366,1.2366,1.2365,1.2369,1.2321,1.2321,1.2321,0,0,1.2617,1.2592,1.2588,1.2559,1.254,1.253,1.25,1.249,1.2482,1.2443,1.2432,1.2413,1.2386,1.2381,1.2377,1.2366,1.2378,1.2368,1.2371,1.237,1.2367,1.2372,1.2376,1.2323,1.2322,1.2322,0,0,1.2645,1.2626,1.2624,1.2606,1.2579,1.2557,1.2557,1.2523,1.2509,1.2498,1.2469,1.2458,1.2432,1.2414,1.2402,1.2426,1.2403,1.2421,1.2445,1.2444,1.2448,1.2451,1.2459,1.2463,1.2422,1.2422,1.2423,0,1.2672,1.2656,1.2625,1.2617,1.2605,1.2571,1.2568,1.2553,1.2521,1.2514,1.2502,1.2469,1.2448,1.2438,1.2444,1.2435,1.2434,1.2425,1.245,1.2452,1.2455,1.2463,1.2466,1.2425,1.2425,1.2424,1.2424,0,1.269,1.2679,1.268,1.2652,1.264,1.2635,1.2604,1.2595,1.2576,1.2555,1.2545,1.2519,1.2497,1.2493,1.2473,1.248,1.2474,1.2457,1.2435,1.2462,1.2469,1.2472,1.2428,1.2427,1.2427,1.2426,0,0,1.2743,1.2699,1.27,1.2687,1.2655,1.2646,1.264,1.2619,1.2613,1.2593,1.2586,1.2566,1.255,1.2535,1.2514,1.2513,1.2533,1.2495,1.2494,1.2503,1.254,1.2553,1.2557,1.2519,1.2519,1.252,1.2542,0,1.2766,1.2753,1.2726,1.2722,1.2711,1.2679,1.2673,1.2653,1.2634,1.2622,1.26,1.2586,1.2566,1.2557,1.2555,1.2531,1.254,1.2529,1.2512,1.2512,1.2519,1.256,1.2574,1.2597,1.2544,1.2545,1.2545,0,1.2792,1.2775,1.2769,1.2739,1.2734,1.2729,1.2708,1.2698,1.2674,1.266,1.2645,1.2622,1.2613,1.2594,1.2581,1.2575,1.2566,1.2554,1.2554,1.255,1.253,1.2558,1.2603,1.2606,1.2549,1.2549,1.2548,0,1.2831,1.2807,1.2801,1.2791,1.2755,1.2753,1.2738,1.2713,1.2703,1.2685,1.2678,1.2659,1.2649,1.2634,1.2606,1.2595,1.2597,1.2575,1.2585,1.2585,1.2586,1.2586,1.263,1.2581,1.2581,1.2581,1.2581,0,1.286,1.2858,1.2818,1.2814,1.2811,1.278,1.2778,1.276,1.2739,1.273,1.2701,1.2694,1.2658,1.2647,1.2625,1.2618,1.2613,1.2601,1.2595,1.2603,1.2605,1.2597,1.2594,1.2582,1.2582,1.2581,1.2581,0,1.2903,1.2877,1.2868,1.2835,1.2827,1.2826,1.2798,1.2793,1.2773,1.2763,1.2759,1.2726,1.2711,1.2682,1.2659,1.2644,1.2642,1.2632,1.265,1.2647,1.2657,1.2657,1.2697,1.2701,1.265,1.2651,1.2651,0,1.2923,1.2921,1.2889,1.2882,1.2868,1.2857,1.2847,1.2816,1.2807,1.2781,1.2779,1.2762,1.2747,1.2725,1.2699,1.2681,1.267,1.2685,1.2667,1.2676,1.267,1.267,1.267,1.2689,1.269,1.2691,1.2691,0,1.2961,1.2948,1.2935,1.2918,1.2907,1.2891,1.2874,1.287,1.2835,1.2826,1.2811,1.28,1.2777,1.2761,1.2739,1.2723,1.2702,1.2697,1.2698,1.2707,1.2717,1.2712,1.2661,1.2696,1.2696,1.2695,1.2695,1.2695,1.2993,1.299,1.2967,1.2954,1.2938,1.2923,1.2917,1.2896,1.2883,1.2863,1.2846,1.2833,1.281,1.2779,1.2765,1.2754,1.2743,1.2745,1.2745,1.2746,1.2749,1.272,1.2749,1.2749,1.2749,1.2749,1.2749,0,1.303,1.3014,1.3002,1.2979,1.2969,1.295,1.2931,1.2923,1.2912,1.2893,1.2879,1.2862,1.2847,1.282,1.2802,1.2799,1.2788,1.2795,1.2794,1.2791,1.276,1.276,1.2804,1.2804,1.2804,1.2804,1.2804,1.2804,1.3047,1.3041,1.3026,1.3012,1.2996,1.2983,1.2974,1.296,1.2944,1.2927,1.2915,1.2898,1.2876,1.2856,1.2841,1.2834,1.2828,1.2838,1.2828,1.2798,1.2793,1.2788,1.2789,1.2837,1.2837,1.286,1.286,1.286]},{"header":{"parameterUnit":"m.s-1","parameterCategory":1,"la1":30.2991,"la2":30.254,"lo1":-89.0895,"lo2":-89.0444,"dy":0.0017,"dx":0.0017,"nx":28,"ny":28,"refTime":"2024-03-27T09:00:00:Z","depth":0,"parameterNumber":3,"parameterNumberName":"V-component_of_WINDS"},"data":[0,0,0,0,0,0,0,0,0,0,0,0,0,0,0,0,0,0,0,0,0,0,0,0,0,0,0,0,0,0,0,0,0,0,0,0,0,0,0,0,0,0,0,0,0,0,0,0,0,0,0,0,0,0,0,0,0,0,-7.2304,-7.2306,0,-7.2486,-7.2488,-7.249,-7.2423,-7.2419,-7.2415,-7.2411,-7.2592,-7.2601,-7.2609,0,0,0,0,0,0,0,0,0,0,0,0,0,-7.1894,-7.1902,-7.2304,-7.2306,-7.2308,-7.2486,-7.2488,-7.2491,-7.2424,-7.2419,-7.2414,-7.2409,-7.2589,-7.26,-7.261,0,0,0,0,0,0,0,0,0,0,0,0,0,-7.2073,-7.1904,-7.2303,-7.2297,-7.2298,-7.2485,-7.2488,-7.2491,-7.2425,-7.2419,-7.2413,-7.2407,-7.2586,-7.2599,-7.2611,-7.2815,0,0,-7.2651,-7.2657,0,0,0,0,0,0,0,0,-7.2063,-7.2088,-7.2295,-7.2297,-7.2299,-7.2426,-7.241,-7.26,-7.2426,-7.2376,-7.2411,-7.2404,-7.2541,-7.2558,-7.2605,-7.2823,-7.2831,-7.2652,-7.266,-7.2666,-7.2669,0,0,0,0,0,0,0,-7.2051,-7.208,-7.2376,-7.2298,-7.2301,-7.2283,-7.2302,-7.2446,-7.2491,-7.238,-7.2376,-7.2399,-7.2541,-7.2593,-7.2609,-7.2834,-7.2652,-7.2663,-7.2671,-7.2676,-7.3229,-7.3235,0,0,0,0,0,0,-7.2038,-7.207,-7.237,-7.2381,-7.2164,-7.2295,-7.2316,-7.2391,-7.2489,-7.2499,-7.2404,-7.2395,-7.2574,-7.2594,-7.2615,-7.2861,-7.2666,-7.2678,-7.2685,-7.3222,-7.323,-7.3238,0,0,0,0,0,0,-7.203,-7.2066,-7.2363,-7.2225,-7.2261,-7.2309,-7.2394,-7.2398,-7.245,-7.2507,-7.2514,-7.2449,-7.257,-7.2597,-7.2766,-7.2866,-7.2684,-7.2695,-7.3214,-7.3224,-7.3234,-7.3353,0,0,0,0,0,0,-7.2018,-7.2063,-7.2142,-7.2227,-7.2269,-7.2513,-7.24,-7.2406,-7.2473,-7.2463,-7.2551,-7.256,-7.2567,-7.2747,-7.2779,-7.2881,-7.2706,-7.3205,-7.3218,-7.3231,-7.3341,-7.3366,-7.3388,0,0,0,0,0,-7.2004,-7.2167,-7.2146,-7.2183,-7.2369,-7.2518,-7.2542,-7.2549,-7.2481,-7.256,-7.2597,-7.2557,-7.285,-7.2765,-7.2801,-7.2907,-7.3199,-7.3215,-7.323,-7.333,-7.3361,-7.3388,0,0,0,0,0,0,-7.209,-7.2178,-7.2156,-7.2352,-7.2429,-7.2507,-7.2607,-7.2582,-7.2678,-7.2664,-7.2666,-7.2687,-7.2862,-7.2901,-7.2805,-7.311,-7.3014,-7.3037,-7.3078,-7.3108,-7.3132,-7.3119,-7.2716,0,0,0,0,0,-7.2132,-7.2248,-7.2318,-7.2484,-7.2523,-7.2559,-7.2624,-7.2623,-7.2702,-7.2733,-7.2782,-7.2859,-7.2968,-7.304,-7.3144,-7.3346,-7.3364,-7.3436,-7.346,-7.348,-7.35,-7.361,-7.3643,-7.3288,-7.3288,-7.3288,0,0,-7.222,-7.2282,-7.2355,-7.2503,-7.2562,-7.2681,-7.2587,-7.2716,-7.2804,-7.2752,-7.2916,-7.2955,-7.304,-7.3228,-7.3312,-7.3266,-7.3602,-7.3499,-7.3514,-7.3524,-7.363,-7.3663,-7.3693,-7.3299,-7.3297,-7.3295,0,0,-7.2441,-7.2499,-7.2645,-7.2707,-7.2798,-7.2821,-7.2856,-7.2939,-7.2964,-7.3129,-7.3093,-7.3196,-7.3384,-7.3447,-7.3503,-7.3749,-7.3716,-7.3782,-7.3908,-7.4015,-7.4043,-7.4068,-7.4156,-7.4188,-7.3802,-7.3803,-7.3803,0,-7.2537,-7.2717,-7.2722,-7.2856,-7.2922,-7.2882,-7.3029,-7.3088,-7.3208,-7.3254,-7.3201,-7.3437,-7.3491,-7.3693,-7.3753,-7.38,-7.384,-7.3773,-7.4039,-7.4064,-7.4087,-7.4172,-7.4205,-7.381,-7.3809,-7.3809,-7.3808,0,-7.2832,-7.2957,-7.3063,-7.3183,-7.326,-7.34,-7.3425,-7.3503,-7.3495,-7.3523,-7.3691,-7.3755,-7.3872,-7.3919,-7.3911,-7.412,-7.4089,-7.4037,-7.3941,-7.4129,-7.4208,-7.424,-7.3821,-7.3818,-7.3816,-7.3814,0,0,-7.3112,-7.3234,-7.3273,-7.3327,-7.3426,-7.3522,-7.3659,-7.3775,-7.3842,-7.3926,-7.4041,-7.4202,-7.4155,-7.422,-7.4218,-7.4313,-7.4504,-7.425,-7.4252,-7.4296,-7.4739,-7.4778,-7.4815,-7.4483,-7.4489,-7.4494,-7.4732,0,-7.3341,-7.3585,-7.3594,-7.3815,-7.3931,-7.3895,-7.4015,-7.4088,-7.4118,-7.4219,-7.425,-7.4365,-7.4294,-7.4333,-7.4425,-7.4462,-7.4594,-7.4444,-7.4589,-7.4594,-7.457,-7.4857,-7.4898,-7.512,-7.4763,-7.4768,-7.4772,0,-7.3642,-7.3738,-7.3972,-7.4055,-7.4104,-7.4212,-7.4319,-7.4417,-7.4498,-7.4513,-7.4586,-7.4571,-7.471,-7.4609,-7.4801,-7.4699,-7.4758,-7.4785,-7.4794,-7.4809,-7.4695,-7.488,-7.5191,-7.5225,-7.4821,-7.4817,-7.4813,0,-7.3824,-7.4012,-7.4176,-7.4224,-7.4325,-7.4401,-7.4447,-7.4522,-7.4592,-7.4685,-7.473,-7.4837,-7.4896,-7.4979,-7.4993,-7.4918,-7.5186,-7.5086,-7.5202,-7.5202,-7.526,-7.5257,-7.5587,-7.5297,-7.5297,-7.5296,-7.5295,0,-7.408,-7.4225,-7.426,-7.4361,-7.4522,-7.453,-7.4689,-7.4728,-7.4796,-7.4903,-7.4878,-7.4979,-7.4991,-7.5095,-7.5107,-7.5264,-7.529,-7.5306,-7.5307,-7.5309,-7.5307,-7.5348,-7.5334,-7.5305,-7.5303,-7.5301,-7.53,0,-7.4311,-7.4341,-7.4518,-7.46,-7.4624,-7.4739,-7.4808,-7.4904,-7.4931,-7.5068,-7.51,-7.5143,-7.5264,-7.5286,-7.5428,-7.5436,-7.5624,-7.5609,-7.5598,-7.5596,-7.5712,-7.5701,-7.6081,-7.6131,-7.5808,-7.5811,-7.5813,0,-7.4473,-7.4584,-7.4679,-7.475,-7.48,-7.4914,-7.4986,-7.4998,-7.5073,-7.5175,-7.5259,-7.5378,-7.5474,-7.5669,-7.5711,-7.582,-7.5808,-7.5934,-7.5824,-7.5823,-7.5812,-7.5805,-7.5817,-7.5955,-7.5959,-7.5961,-7.5964,0,-7.4758,-7.4767,-7.4872,-7.4984,-7.507,-7.5158,-7.524,-7.53,-7.5322,-7.5408,-7.5533,-7.5608,-7.5754,-7.5873,-7.5981,-7.6025,-7.5999,-7.5998,-7.6031,-7.6034,-7.6023,-7.6032,-7.5656,-7.5989,-7.5987,-7.5985,-7.5983,-7.5982,-7.496,-7.5058,-7.514,-7.5258,-7.5322,-7.54,-7.5496,-7.5536,-7.5641,-7.5763,-7.5763,-7.59,-7.5978,-7.6122,-7.6173,-7.628,-7.6239,-7.6287,-7.6299,-7.6311,-7.6322,-7.6006,-7.6299,-7.6298,-7.6298,-7.6297,-7.6297,0,-7.5244,-7.5296,-7.5405,-7.5523,-7.5616,-7.5584,-7.5674,-7.5754,-7.5875,-7.5952,-7.6048,-7.6191,-7.6306,-7.6358,-7.6471,-7.6546,-7.6537,-7.6576,-7.6571,-7.6582,-7.6351,-7.6312,-7.6581,-7.6581,-7.6581,-7.6581,-7.6581,-7.6581,-7.5403,-7.5567,-7.5587,-7.5781,-7.5831,-7.5967,-7.6022,-7.6093,-7.6155,-7.6317,-7.6414,-7.6447,-7.6514,-7.6632,-7.6736,-7.6748,-7.6791,-7.6836,-7.6842,-7.6626,-7.6597,-7.657,-7.6533,-7.6845,-7.6845,-7.7064,-7.7066,-7.7068]}]]